Miscellaneous Local Product
Issued by NWS North Platte, NE

Home | Current Version | Previous Version | Text Only | Print | Product List | Glossary On
Versions: 1 2 3 4 5 6 7 8 9 10 11 12 13 14 15 16 17 18 19 20 21 22 23 24 25 26 27 28 29 30 31 32 33 34 35 36 37 38 39 40 41 42 43 44 45 46 47 48 49 50
000
AXUS43 KLBF 060110
MISLBF


WESTERN AND NORTH CENTRAL NEBRASKA HOURLY WEATHER ROUNDUP
NATIONAL WEATHER SERVICE NORTH PLATTE NE
700 PM CST MON DEC 05 2022

NOTE: "FAIR" INDICATES FEW OR NO CLOUDS BELOW 12,000 FEET WITH NO
SIGNIFICANT WEATHER AND/OR OBSTRUCTIONS TO VISIBILITY.

NOTE: STATIONS NOT REPORTING SKY/WEATHER AND PRESSURE ARE
PROVIDED BY RAWS AND APRS NETWORKS AND ARE NOT UNDER NATIONAL
WEATHER SERVICE QUALITY CONTROL.

...OBSERVATIONS IN AND NEAR THE EASTERN PANHANDLE OF NEBRASKA...

CITY           SKY/WX    TMP DP  RH WIND       PRES   REMARKS
PINE RIDGE     PTCLDY    16   9  74 E6        29.82F WCI   7
GORDON         PTCLDY    15  11  82 SE6       29.83F WCI   6
CHADRON        PTCLDY    19  12  74 SE6       29.82F WCI  11
ALLIANCE       PTCLDY    19  16  88 E7        29.82S WCI  10
GURLEY         FAIR      27  22  80 SE8       29.79S WCI  19
SIDNEY         CLOUDY    29  20  69 SE8       29.82R
LODGEPOLE      MOCLDY    26  19  75 SE6       29.80R WCI  19
CRESCENT LAKE    N/A     25  19  78 E3          N/A
$$

...OBSERVATIONS IN NORTHERN NEBRASKA AND FAR SOUTHERN SOUTH DAKOTA...

CITY           SKY/WX    TMP DP  RH WIND       PRES   REMARKS
WINNER         PTCLDY    19  13  77 E5        29.96F WCI  12
VALENTINE      PTCLDY    20  10  65 E6        29.92F WCI  12
AINSWORTH      PTCLDY    22  14  72 CALM      29.93S
O`NEILL        CLOUDY    23  16  75 CALM      29.96S
THEDFORD       MOCLDY    24  14  64 E3        29.92S
BROKEN BOW     CLOUDY    28  14  55 N8        29.92R WCI  20
ORD            CLOUDY    28  14  55 N7        29.94S
ALBION         CLOUDY    28  16  62 N7        29.96R
EWING            N/A     26  19  74 N3          N/A
CHAMBERS         N/A     25  17  71 CALM        N/A
BUTTE            N/A     23  17  77 NE7         N/A  WCI  15
SPRINGVIEW       N/A     24  16  71 CALM        N/A
VALENTINE NWR    N/A     22  15  72 CALM        N/A
HALSEY           N/A     25  13  60 N3          N/A
$$

...OBSERVATIONS IN SOUTHWEST NEBRASKA AND FAR NORTHEAST COLORADO...

CITY           SKY/WX    TMP DP  RH WIND       PRES   REMARKS
WRAY           FAIR      30  19  64 E6        29.85S
HOLYOKE        CLEAR     27  18  69 E7        29.85S WCI  19
IMPERIAL       CLEAR     25  15  66 NE6       29.88R WCI  18
GRANT          FAIR      23  18  80 E7        29.86S WCI  15
OGALLALA       MOCLDY    28  20  73 E5        29.88R
NORTH PLATTE   CLOUDY    30  17  58 NE5       29.90S
MCCOOK         MOCLDY    32  19  58 NE10      29.90R
LEXINGTON      MOCLDY    30  18  61 NE10      29.91S
CALLAWAY         N/A     27  18  67 NE9         N/A  WCI  18
STAPLETON        N/A     26  15  63 CALM        N/A
$$

...OBSERVATIONS IN CENTRAL LINCOLN COUNTY AREA...

CITY           SKY/WX    TMP DP  RH WIND       PRES   REMARKS
N.P. AIRPORT   CLOUDY    30  17  58 NE5       29.90S
N.P. HILLCREST   N/A     28  19  67 NE7         N/A
N.P. DOWNTOWN    N/A     28  18  66 E6          N/A
N.P. SOUTHEAST   N/A     28  18  65 E3          N/A
$$

...OBSERVATIONS ACROSS THE ROCKIES AND WESTERN HIGH PLAINS...

CITY           SKY/WX    TMP DP  RH WIND       PRES   REMARKS
SCOTTSBLUFF    MOCLDY    28  21  75 E9        29.81S WCI  19
KIMBALL        CLOUDY    34  24  66 CALM      29.80R
CHEYENNE       CLEAR     34  19  54 VRB5      29.78S
DENVER         PTCLDY    37  24  59 SE12      29.80R
STEAMBOAT      CLOUDY    26  26 100 CALM      29.84S
COPPER MTN     LGT SNOW  27  18  69 S16G24    29.91F WCI  14
LEADVILLE      CLOUDY    29  15  56 S10       29.86F WCI  20
ASPEN          MOCLDY    35  27  72 CALM      29.85R
GUNNISON       MOCLDY    35  25  66 S3        29.89R
TELLURIDE      MOCLDY    34  16  47 S12       29.97S
LARAMIE        MOCLDY    27  18  69 SW16      29.79S WCI  15
CASPER         PTCLDY    31  15  52 SW14      29.73S
GILLETTE       CLEAR     26  18  71 SE5       29.67F
SHERIDAN       CLEAR     15  10  80 CALM      29.65S
JACKSON        CLOUDY    25  16  68 S10       29.83S WCI  15
YELLOWSTONE      N/A     16  12  84 MISG      29.79R
$$

...OBSERVATIONS ACROSS THE NORTHERN PLAINS...

CITY           SKY/WX    TMP DP  RH WIND       PRES   REMARKS
RAPID CITY     CLEAR     18  13  80 S12       29.79F WCI   5
PIERRE         CLEAR     13  10  88 CALM      29.94F
SIOUX FALLS    CLOUDY    27  18  69 NE8       29.97S WCI  19
ABERDEEN       PTCLDY    15   8  73 NE7       30.00F WCI   5
WILLISTON      LGT SNOW  12  10  92 SE12      29.86F WCI  -2
DICKINSON      LGT SNOW  14  11  87 E10       29.79F VSB 1   WCI   1
BISMARCK       FLURRIES  11   3  70 E8        29.96F WCI  -1
FARGO          MOCLDY     5  -3  69 N7        30.06F WCI  -7
GRAND FORKS    PTCLDY    -1  -7  75 E7        30.08R WCI -14
$$

...OBSERVATIONS ACROSS THE CENTRAL AND SOUTHERN PLAINS...

CITY           SKY/WX    TMP DP  RH WIND       PRES   REMARKS
GRAND ISLAND   MOCLDY    30  16  56 NE12      29.94S
LINCOLN        CLOUDY    33  20  58 N13       29.96R
OMAHA          CLOUDY    33  20  58 N10       29.95R
DES MOINES     CLOUDY    34  23  64 N9        29.90S
KANSAS CITY    CLOUDY    46  37  71 W6        29.84R
WICHITA        MOCLDY    43  41  93 NE5       29.81R
DODGE CITY     PTCLDY    40  20  44 NE13      29.83R
OKLAHOMA CITY  CLEAR     62  50  64 NE6       29.72R
DALLAS         MOCLDY    72  64  76 S10G22    29.77R
AMARILLO       CLEAR     63  34  33 W20G26    29.76R
$$



USA.gov is the U.S. government's official web portal to all federal, state and local government web resources and services.